Location: Sankt+Gallen
(47.4262°N, 9.3755°E)
Time: 05:48:13
(UTC+01:00)

ARIANE 6 FM1 Upper Stage - Pass Details

Date: 23 February 2026
Orbit: 523 x 607 km, 62.0° (Epoch: 11 March)

Event Time Altitude Azimuth Distance (km) Brightness Sun altitude
Rises 18:37:44 0° 306° (NW) 2,659 6.9 -7.4°
Reaches altitude 10° 18:40:20 10° 289° (WNW) 1,767 6.4 -7.8°
Maximum altitude 18:43:15 20° 241° (WSW) 1,258 5.5 -8.3°
Drops below altitude 10° 18:46:11 10° 194° (SSW) 1,772 5.5 -8.8°
Sets 18:48:48 0° 177° (S) 2,668 6.1 -9.3°
